Tracking 19634 objects as of 22-May-2019
HD Live streaming from Space Station
objects crossing your sky now

GOES 2

Track GOES 2 now!
GOES 2 is classified as:


NORAD ID: 10061
Int'l Code: 1977-048A
Perigee: 35,969.3 km
Apogee: 36,109.8 km
Inclination: 12.2 °
Period: 1,448.7 minutes
Semi major axis: 42410 km
RCS: 2.5118 m2 (large)
Launch date: June 16, 1977
Source: United States (US)
Launch site: AIR FORCE EASTERN TEST RANGE (AFETR)
aabbcc
Your satellite tracking list
Your tracking list is empty




NASA's NSSDC Master Catalog

Two Line Element Set (TLE):
1 10061U 77048A   19141.74533431 -.00000177 +00000-0 +00000-0 0  9996
2 10061 012.1578 319.5745 0016570 351.2755 194.5133 00.99401288020598
Source of the keplerian elements: AFSPC